Location: Melbourne
(37.8170°S, 144.9670°E)
Time: 08:14:10
(UTC+10:00)

Explorer 11/Cluster Stage 4 - Visible Passes

Search period start: 28 April 2015 00:00
Search period end: 08 May 2015 00:00
Orbit: 468 x 1273 km, 28.8° (Epoch: 25 April)

Date Brightness Start Highest point End Pass type
(mag) Time Alt. Az. Time Alt. Az. Time Alt. Az.
28 Apr 9.3 03:42:47 10° NE 03:42:47 10° NE 03:42:50 10° NE visible
28 Apr 8.5 05:25:05 14° NW 05:26:43 15° NNW 05:30:04 10° NNE visible
29 Apr 8.6 05:17:25 12° NNW 05:18:14 12° NNW 05:20:16 10° N visible
06 May 8.5 19:09:02 10° N 19:10:39 11° NNE 19:11:23 11° NNE visible
07 May 8.4 18:59:10 10° NNW 19:02:09 14° NNE 19:03:37 13° NE visible
